Portada
METAR-TAF:

METAR-TAF

Aeroports :

Vineyard Haven, Massachusetts, Estats Units d'Amèrica

latitud: 41-23-32N, longitud: 070-37-00W, altitud: 20 m

Observació

L'informe es va fer fa 26 minuts, a les 22:53 UTC
Vent 10 kt del Est
Temperatura 7°C
Humitat 70%
Pressió 1007 hPa
Visibilitat: 16.1 km
Escasses núvols a una alçada de 5500 ft
Cel cobert a una alçada de 8000 ft
pluja

METAR: KMVY 152253Z AUTO 10010KT 10SM -RA FEW055 OVC080 07/02 A2973 RMK AO2 RAB19 SLP068 P0000 T00720022

Hora: 19:19 (23:19 UTC)


TAF: manca

Observacions i pronòstics meteorològics de més de 4000 aeroports (METAR i TAF).

Les estacions disponibles són els punts grocs i vermells al mapa.

Posi el ratolí al punt desitjat per veure el nom de l'estació.

Feu clic per veure les observacions i els pronòstics meteorològics.

Per canviar el mapa: feu clic els botons verds amb una creu de color negre per apropar; al botó verd amb un guió per allunyar la imatge; o en les fletxes verdes per a mapes adjacents.


METAR-TAF: